www.pogodaiklimat.ru

Погода и климат >> Архив погоды >> Россия >> Красноярский край >> Красноярск


АРХИВ ПОГОДЫ в Красноярске

Время (UTC), дата Ветер
(напр.,м/с)
 
Видим.   Явления Облачность Т
(С)
Тd
(С)
f
(%)
Тe
(С)
Тes
(С)
Комфортность P
(гПа)
Po
(гПа)
Тmin
(С)
Tmax
(С)
R
(мм)
R24
(мм)
S
(см)
18 8.09 З 1 4000 м ясно +6.8 +6.1 95 +6 +6 по сезону 1017.5 984.0
21 8.09 ЮЗ 1 4000 м ясно +5.5 +5.1 97 +4 +4 прохладно 1017.7 984.0
00 9.09 штиль 0 4000 м дымка 3/0
[Ci fib]
+4.1 +3.6 97 +3 +3 прохладно 1016.4 982.6 +3.9
03 9.09 СВ 1 20 км 2 балла +10.8 +7.3 79 +11 +15 по сезону 1015.7 982.7
06 9.09 ЮВ 1 50 км 6 баллов +16.1 +8.6 61 +17 +21 тепло 1013.6 981.3
09 9.09 В 1 50 км 10 баллов +19.0 +9.2 53 +21 +21 комфорт 1011.9 980.0
12 9.09 ЮЗ 1 50 км 10/0 2000 м
[Ac lent Cs]
+15.1 +9.9 71 +16 +16 тепло 1010.9 978.5 +19.4
15 9.09 З 2 4000 м 2 балла +10.3 +8.9 91 +9 +9 по сезону 1011.6 978.7
18 9.09 З 1 4000 м ясно +8.4 +8.0 97 +7 +7 по сезону 1010.4 977.3
21 9.09 ЮЗ 1 4000 м 10 баллов +7.9 +7.5 97 +7 +7 по сезону 1010.4 977.3
00 10.09 ЮЗ 4
{10}
20 км слаб. ливневой дождь 10/8 600 м
[Cb cap Ac As]
+10.8 +9.2 90 +8 +8 по сезону 1009.4 976.6 +6.9 0.0
03 10.09 З 1 20 км слаб. ливневой дождь 10 баллов +11.0 +10.2 95 +11 +11 по сезону 1011.5 978.7
06 10.09 ЮЗ 4-10
{10}
20 км слаб. ливневой дождь 10/8 600 м
[Cb cap Ac As]
+12.0 +10.5 91 +10 +10 по сезону 1010.0 977.3
09 10.09 З 2
{10}
50 км {ливн. осадки} 9/3 600 м
[Cb cap Ac trans Ci fib]
+15.1 +11.5 79 +15 +15 тепло 1011.0 978.7
12 10.09 ЮЗ 3 50 км в посл. час ливневой дождь 9/8 600 м
[Cb cap Ac trans Ci fib]
+12.8 +10.5 86 +11 +11 по сезону 1011.7 979.1 +15.2 5
15 10.09 ЮЗ 2
{11}
4000 м в посл. час ливневой дождь 9/9 600 м
[Cb cap]
+11.4 +9.4 88 +10 +10 по сезону 1013.4 980.5
18 10.09 ЮЗ 2 4000 м 2 балла +9.8 +8.7 93 +8 +8 по сезону 1014.3 981.3
21 10.09 ЮЗ 3 4000 м 9 баллов +10.1 +8.4 89 +8 +8 по сезону 1014.3 981.3
00 11.09 З 1 20 км слаб. ливневой дождь 10/10 600 м
[Cb cap]
+9.5 +9.1 97 +9 +9 тепло 1013.4 980.4 +8.8 3
03 11.09 ЮЗ 2 50 км 9 баллов +11.6 +9.0 84 +10 +11 по сезону 1012.8 980.0
06 11.09 ЮЗ 3 50 км 9 баллов +14.4 +9.0 70
09 11.09 ЮЗ 3
{10}
10 км ливневой дождь, в посл. час гроза 10/10 600 м
[Cb cap]
+9.8 +7.3 84 +8 +8 прохладно 1010.3 977.4
12 11.09 З 1 20 км слаб. ливневой дождь {гроза} 10/10 600 м
[Cb cap]
+9.6 +8.8 95 +9 +9 по сезону 1011.2 978.2 +15.1 9
15 11.09 З 1 4000 м 10 баллов +7.7 +6.6 93 +7 +7 по сезону 1014.6 981.3
18 11.09 З 1 4000 м в посл. час ливневой дождь 10 баллов +6.8 +5.3 90 +6 +6 по сезону 1014.7 981.3
21 11.09 ЮЗ 1 4000 м 9 баллов +6.2 +4.0 86 +5 +5 по сезону 1016.2 982.7
00 12.09 З 2 20 км в посл. час ливневой дождь 8/6 600 м
[Cb cap Ac trans]
+5.2 +3.0 86 +3 +3 по сезону 1016.9 983.2 +5.2 1
03 12.09 З 2 50 км в посл. час ливневой дождь 9/9 600 м
[Cb cap]
+4.8 +1.8 81 +2 +3 холодно 1019.3 985.5 +4.7
06 12.09 З 3 50 км 9 баллов +7.4 -1.0 55 +5 +6 холодно 1020.3 986.7
09 12.09 З 3 50 км 9 баллов +6.6 -1.8 55 +4 +4 холодно 1020.4 986.7
12 12.09 З 1 50 км в посл. час ливневой дождь 10/8 600 м
[Cb cap Ac As]
+4.8 +1.0 76 +4 +4 холодно 1019.1 985.3 +7.6 0.3
15 12.09 ЮЗ 2 4000 м слаб. ливневой дождь 10 баллов +4.5 +2.4 86 +2 +2 холодно 1019.2 985.3
18 12.09 ЮЗ 4
{10}
4000 м слаб. ливневой дождь 10/10 600 м
[Cb cap]
+3.8 +2.6 92 -1 -1 очень
холодно
1016.3 982.5
21 12.09 ЮЗ 5-10
{11}
4000 м слаб. ливневой дождь 10/10 600 м
[Cb cap]
+3.8 +2.3 90 -1 -1 холодно 1013.6 979.9
00 13.09 ЮЗ 4
{11}
20 км слаб. ливневой дождь 10/10 600 м
[Cb cap]
+4.3 +2.8 90 -0 -0 прохладно 1012.7 979.0 +3.8 8
03 13.09 ЮЗ 2 20 км слаб. ливневой дождь 10 баллов +4.6 +3.6 93 +2 +2 холодно 1015.0 981.3
06 13.09 З 2 20 км слаб. ливневой дождь 10 баллов +5.4 +4.0 91 +3 +3 очень
холодно
1013.6 980.0
09 13.09 З 1 50 км в посл. час ливневой дождь 9 баллов +5.6 +4.7 94 +4 +5 холодно 1013.5 980.0
12 13.09 ЮЗ 2 50 км {ливн. осадки} 8/3 600 м
[Cb cap Ci fib]
+4.2 +1.7 84 +1 +1 очень
холодно
1013.1 979.4 +6.2 3
15 13.09 З 2 4000 м 7 баллов +4.6 +1.6 81 +2 +2 холодно 1015.0 981.3
18 13.09 З 2 4000 м 10 баллов +3.6 -0.4 75 +1 +1 холодно 1016.6 982.7
21 13.09 ЮЗ 3 4000 м 10 баллов +3.5 -2.0 67 0 0 холодно 1016.6 982.7
00 14.09 З 2 50 км 10/5 600 м
[Cb cap Ac As]
+3.7 -2.2 65 +1 +1 прохладно 1017.9 983.9 +3.4
03 14.09 З 1 50 км 10 баллов +5.3 -0.7 65 +4 +4 прохладно 1020.5 986.7
06 14.09 ЮЗ 2 50 км 10 баллов +6.4 -1.3 58 +5 +5 холодно 1020.4 986.7
09 14.09 З 1 50 км 10 баллов +7.8 +0.3 59 +7 +7 прохладно 1020.2 986.7
12 14.09 штиль 0 20 км слаб. ливневой дождь 10/8 600 м
[Cb cap Ac As]
+6.0 +0.4 67 +5 +5 прохладно 1018.8 985.1 +7.9 0.0
15 14.09 ЮЗ 1 4000 м слаб. ливневой дождь 10 баллов +4.1 +2.9 92 +3 +3 прохладно 1019.2 985.3
18 14.09 ЮЗ 4 4000 м слаб. ливневой дождь 10 баллов +4.1 +2.6 90 -0 -0 холодно 1017.9 984.0
21 14.09 ЮЗ 5
{10}
4000 м {ливн. осадки} 10/5 600 м
[Cb cap Ac As]
+5.7 +3.3 85 +1 +1 прохладно 1013.5 980.0
00 15.09 ЮЗ 4
{10}
20 км слаб. ливневой дождь 9/8 600 м
[Cb cap Ac lent]
+6.9 +5.1 88 +3 +3 по сезону 1012.4 979.1 +3.7 2
03 15.09 ЮЗ 3
{10}
20 км слаб. ливневой дождь 10/8 600 м
[Cb cap Ac As]
+8.4 +7.1 92 +6 +6 по сезону 1012.0 978.9
06 15.09 ЮЗ 2 50 км 10 баллов +10.8 +8.4 85 +9 +9 прохладно 1012.9 980.0
09 15.09 ЮЗ 2 50 км 10 баллов +11.3 +9.2 87 +10 +10 по сезону 1012.8 980.0
12 15.09 З 2 50 км в посл. час ливневой дождь 10/10 600 м
[Cb cap]
+10.8 +9.2 90 +9 +9 по сезону 1012.9 980.0 +11.5 0.0
15 15.09 З 1 4000 м 10 баллов +10.9 +9.3 90 +11 +11 тепло 1014.2 981.3

 

Местоположение метеостанции Красноярск (Красноярский край, Россия): широта 56.03 долгота 92.75 высота над уровнем моря 276 м.

В архиве по умолчанию представлена погода в Красноярске за последнюю неделю. Архивные данные за месяц целиком и за предыдущие месяцы, начиная с января 2011 года, Вы можете получить, выбрав интересующий диапазон дат из раскрывающегося списка и нажав кнопку "Ввод!".


*Определитесь, кто Вы:
робот инопланетянин человек

Внимание! Время в таблицах - всемирное. Для получения местного времени необходимо прибавить поправку, которая равна 7 ч.

Смотрите также архив погоды в соседних городах и на ближайших метеорологических станциях:

Погода в Минино (Красноярский край, Россия) (5 км)
Погода в Роевом Ручье (Красноярский край, Россия) (7 км)
Погода в Емельяново (Красноярский край, Россия) (22 км)
Погода в Шумихе (Красноярский край, Россия) (29 км)
Погода в Каче (Красноярский край, Россия) (36 км)
Погода в Погорельском Бору (Красноярский край, Россия) (40 км)
Погода в Железногорске (Красноярский край, Россия) (54 км)
Погода в Сухобузимском (Красноярский край, Россия) (62 км)
Погода в Кемчуге (Красноярский край, Россия) (68 км)
Погода в Шалинском (Красноярский край, Россия) (71 км)

Пояснения к столбцам:

Ветер - указаны скорость ветра в м/с - средняя за 10 мин, порывы в срок и между сроками (в фигурных скобках) и направление, откуда дует ветер: С - северный, СВ - северо-восточный, В - восточный, ЮВ - юго-восточный, Ю - южный, ЮЗ - юго-западный, З - западный, СЗ - северо-западный.
Видимость - горизонтальная дальность видимости в метрах или километрах. При видимости от 1 до 10 км при отсутствии осадков обычно наблюдается дымка, при ухудшении видимости до 1 км и менее - туман. В сухую погоду видимость может ухудшаться дымом, пылью или мглою.
Явления - указаны атмосферные явления, наблюдавшиеся в срок или в последний час перед сроком; фигурными скобками обозначены явления, наблюдавшиеся между сроками (за 1-3 часа до срока); квадратными скобками обозначены град или гололедные отложения с указанием их диаметра в мм.
Облачность - указаны через наклонную черту общая и нижняя облачность в баллах и высота нижней границы облаков в метрах; квадратными скобками обозначены формы облаков: Ci - перистые, Cs - перисто-слоистые, Cc - перисто-кучевые, Ac - высококучевые, As - высокослоистые, Sc - слоисто-кучевые, Ns - слоисто-дождевые, Cu - кучевые, Cb - кучево-дождевые. Подробнее классификацию облаков см. в Атласе облаков (PDF).
T - Температура воздуха - температура, измеренная на высоте 2 м над землей.
Td - Температура точки росы - температура, при понижении до которой содержащийся в воздухе водяной пар достигнет насыщения.
f - Относительная влажность воздуха - влажноcть воздуха, измеренная на высоте 2 м над землей.
Te - Эффективная температура - температура, которую ощущает одетый по сезону человек в тени. Характеристика душности погоды. При расчете учитывается влияние влажности воздуха и скорости ветра на теплоощущения человека.
Tes - Эффективная температура на солнце - температура, которую ощущает человек, с поправкой на солнечный нагрев. Характеристика знойности погоды. Зависит от высоты солнца над горизонтом, облачности и скорости ветра. Ночью, в пасмурную погоду, а также при ветре 12 м/с и более поправка равна нулю.
P - Атмосферное давление - приведенное к уровню моря атмосферное давление.
Po - Атмосферное давление - измеренное на уровне метеостанции атмосферное давление.
Tmin - Минимальная температура - минимум температуры воздуха на высоте 2 м над землей.
Tmax - Максимальная температура - максимум температуры воздуха на высоте 2 м над землей.
R - Количество осадков - Количество выпавших осадков за период времени, мм. При наведении курсора мыши на число - период времени, за который выпало указанное количество осадков.
R24 - Количество осадков - Количество выпавших осадков за 24 часа, мм.
S - Снежный покров - Высота снежного покрова, см. При наведении курсора мыши на число - состояние снежного покрова и степень покрытия местности в баллах.